Time,TemperatureF,DewpointF,PressureIn,WindDirection,WindDirectionDegrees,WindSpeedMPH,WindSpeedGustMPH,Humidity,HourlyPrecipIn,Conditions,Clouds,dailyrainin,SoftwareType,DateUTC
2013-08-30 00:00:00,72.3,40.8,30.03,NNW,337,11.0,12.3,32,0.00,,---,0.00,VWS V14.01,2013-08-30 06:00:00,
2013-08-30 00:06:00,71.8,40.4,30.03,NNW,338,7.6,10.5,32,0.00,,---,0.00,VWS V14.01,2013-08-30 06:06:00,
2013-08-30 00:12:00,71.6,41.0,30.03,NNW,346,8.7,8.7,33,0.00,,---,0.00,VWS V14.01,2013-08-30 06:12:00,
2013-08-30 00:17:00,71.8,41.2,30.03,NNW,339,7.6,7.6,33,0.00,,---,0.00,VWS V14.01,2013-08-30 06:17:00,
2013-08-30 00:23:00,71.8,41.2,30.03,NNW,335,9.6,9.6,33,0.00,,---,0.00,VWS V14.01,2013-08-30 06:23:00,
2013-08-30 00:28:00,71.6,41.0,30.03,NNW,348,8.3,8.3,33,0.00,,---,0.00,VWS V14.01,2013-08-30 06:28:00,
2013-08-30 00:33:00,71.6,41.8,30.03,North,0,7.6,8.1,34,0.00,,---,0.00,VWS V14.01,2013-08-30 06:33:00,
2013-08-30 00:38:00,71.6,41.8,30.06,North,7,10.5,11.4,34,0.00,,---,0.00,VWS V14.01,2013-08-30 06:38:00,
2013-08-30 00:44:00,71.2,42.2,30.06,North,3,11.0,11.0,35,0.00,,---,0.00,VWS V14.01,2013-08-30 06:44:00,
2013-08-30 00:49:00,71.1,42.8,30.06,North,353,8.7,8.7,36,0.00,,---,0.00,VWS V14.01,2013-08-30 06:49:00,
2013-08-30 00:56:00,70.5,43.0,30.03,North,5,10.5,10.5,37,0.00,,---,0.00,VWS V14.01,2013-08-30 06:56:00,
2013-08-30 01:02:00,70.3,44.2,30.03,North,4,10.5,10.5,39,0.00,,---,0.00,VWS V14.01,2013-08-30 07:02:00,
2013-08-30 01:07:00,70.5,43.7,30.03,North,357,10.5,10.5,38,0.00,,---,0.00,VWS V14.01,2013-08-30 07:07:00,
2013-08-30 01:13:00,71.2,45.0,30.03,North,8,7.6,11.4,39,0.00,,---,0.00,VWS V14.01,2013-08-30 07:13:00,
2013-08-30 01:19:00,71.8,46.2,30.03,North,4,10.1,10.5,40,0.00,,---,0.00,VWS V14.01,2013-08-30 07:19:00,
2013-08-30 01:24:00,72.1,46.5,30.03,North,9,8.7,10.1,40,0.00,,---,0.00,VWS V14.01,2013-08-30 07:24:00,
2013-08-30 01:30:00,72.7,47.0,30.03,NNE,19,10.1,12.8,40,0.00,,---,0.00,VWS V14.01,2013-08-30 07:30:00,
2013-08-30 01:35:00,72.9,47.2,30.03,NNE,17,10.5,10.5,40,0.00,,---,0.00,VWS V14.01,2013-08-30 07:35:00,
2013-08-30 01:41:00,72.9,46.5,30.03,North,9,12.8,12.8,39,0.00,,---,0.00,VWS V14.01,2013-08-30 07:41:00,
2013-08-30 01:46:00,72.5,46.2,30.03,North,5,11.0,11.0,39,0.00,,---,0.00,VWS V14.01,2013-08-30 07:46:00,
2013-08-30 01:51:00,72.0,46.3,30.03,North,357,12.8,12.8,40,0.00,,---,0.00,VWS V14.01,2013-08-30 07:51:00,
2013-08-30 01:57:00,71.6,46.7,30.03,North,357,11.0,11.0,41,0.00,,---,0.00,VWS V14.01,2013-08-30 07:57:00,
2013-08-30 02:02:00,70.9,47.3,30.03,North,357,10.1,10.1,43,0.00,,---,0.00,VWS V14.01,2013-08-30 08:02:00,
2013-08-30 02:07:00,70.5,47.0,30.03,North,0,11.0,13.2,43,0.00,,---,0.00,VWS V14.01,2013-08-30 08:07:00,
2013-08-30 02:12:00,70.3,46.8,30.03,North,357,13.2,13.2,43,0.00,,---,0.00,VWS V14.01,2013-08-30 08:12:00,
2013-08-30 02:18:00,70.2,46.6,30.03,North,350,10.5,10.5,43,0.00,,---,0.00,VWS V14.01,2013-08-30 08:18:00,
2013-08-30 02:23:00,70.2,46.6,30.03,North,353,10.1,10.1,43,0.00,,---,0.00,VWS V14.01,2013-08-30 08:23:00,
2013-08-30 02:29:00,70.2,46.6,30.03,North,357,8.7,10.5,43,0.00,,---,0.00,VWS V14.01,2013-08-30 08:29:00,
2013-08-30 02:35:00,70.3,46.8,30.03,North,0,11.0,11.0,43,0.00,,---,0.00,VWS V14.01,2013-08-30 08:35:00,
2013-08-30 02:40:00,70.5,47.0,30.03,North,2,10.5,10.5,43,0.00,,---,0.00,VWS V14.01,2013-08-30 08:40:00,
2013-08-30 02:46:00,70.7,46.5,30.03,North,357,12.8,12.8,42,0.00,,---,0.00,VWS V14.01,2013-08-30 08:46:00,
2013-08-30 02:51:00,70.7,47.1,30.03,North,6,10.5,12.3,43,0.00,,---,0.00,VWS V14.01,2013-08-30 08:51:00,
2013-08-30 02:57:00,70.9,47.3,30.03,North,9,11.0,11.0,43,0.00,,---,0.00,VWS V14.01,2013-08-30 08:57:00,
2013-08-30 03:02:00,71.1,47.5,30.03,North,357,10.1,11.4,43,0.00,,---,0.00,VWS V14.01,2013-08-30 09:02:00,
2013-08-30 03:08:00,70.9,47.3,30.03,NNE,14,11.0,11.0,43,0.00,,---,0.00,VWS V14.01,2013-08-30 09:08:00,
2013-08-30 03:13:00,70.7,47.1,30.03,North,8,12.8,12.8,43,0.00,,---,0.00,VWS V14.01,2013-08-30 09:13:00,
2013-08-30 03:19:00,70.7,47.7,30.03,North,5,13.2,13.2,44,0.00,,---,0.00,VWS V14.01,2013-08-30 09:19:00,
2013-08-30 03:24:00,70.7,47.7,30.03,North,0,12.3,12.3,44,0.00,,---,0.00,VWS V14.01,2013-08-30 09:24:00,
2013-08-30 03:29:00,70.7,48.3,30.03,North,4,8.1,10.5,45,0.00,,---,0.00,VWS V14.01,2013-08-30 09:29:00,
2013-08-30 03:35:00,70.7,48.3,30.03,North,0,8.3,8.7,45,0.00,,---,0.00,VWS V14.01,2013-08-30 09:35:00,
2013-08-30 03:40:00,70.5,48.2,30.03,North,3,11.0,13.2,45,0.00,,---,0.00,VWS V14.01,2013-08-30 09:40:00,
2013-08-30 03:45:00,70.3,48.6,30.03,NNW,346,11.4,11.4,46,0.00,,---,0.00,VWS V14.01,2013-08-30 09:45:00,
2013-08-30 03:50:00,70.2,48.4,30.03,North,357,10.5,12.8,46,0.00,,---,0.00,VWS V14.01,2013-08-30 09:50:00,
2013-08-30 03:55:00,70.2,49.0,30.03,North,357,12.3,14.5,47,0.00,,---,0.00,VWS V14.01,2013-08-30 09:55:00,
2013-08-30 04:01:00,70.0,48.8,30.03,North,2,10.1,10.1,47,0.00,,---,0.00,VWS V14.01,2013-08-30 10:01:00,
2013-08-30 04:06:00,69.8,49.2,30.03,North,357,10.5,10.5,48,0.00,,---,0.00,VWS V14.01,2013-08-30 10:06:00,
2013-08-30 04:11:00,69.8,49.2,30.06,NNE,16,8.7,12.3,48,0.00,,---,0.00,VWS V14.01,2013-08-30 10:11:00,
2013-08-30 04:17:00,69.6,49.6,30.06,North,8,10.5,12.3,49,0.00,,---,0.00,VWS V14.01,2013-08-30 10:17:00,
2013-08-30 04:22:00,69.4,49.5,30.06,North,10,11.0,11.0,49,0.00,,---,0.00,VWS V14.01,2013-08-30 10:22:00,
2013-08-30 04:28:00,69.3,49.8,30.03,North,4,12.3,12.3,50,0.00,,---,0.00,VWS V14.01,2013-08-30 10:28:00,
2013-08-30 04:33:00,69.1,50.2,30.03,North,11,11.9,12.8,51,0.00,,---,0.00,VWS V14.01,2013-08-30 10:33:00,
2013-08-30 04:39:00,68.9,50.6,30.06,North,0,11.9,11.9,52,0.00,,---,0.00,VWS V14.01,2013-08-30 10:39:00,
2013-08-30 04:45:00,69.1,51.2,30.06,North,357,12.8,12.8,53,0.00,,---,0.00,VWS V14.01,2013-08-30 10:45:00,
2013-08-30 04:50:00,69.1,51.2,30.06,North,0,11.0,12.3,53,0.00,,---,0.00,VWS V14.01,2013-08-30 10:50:00,
2013-08-30 04:55:00,68.9,51.1,30.06,North,357,8.3,11.0,53,0.00,,---,0.00,VWS V14.01,2013-08-30 10:55:00,
2013-08-30 05:01:00,68.7,50.9,30.03,North,3,8.1,12.3,53,0.00,,---,0.00,VWS V14.01,2013-08-30 11:01:00,
2013-08-30 05:07:00,68.5,50.2,30.03,North,6,11.4,11.4,52,0.00,,---,0.00,VWS V14.01,2013-08-30 11:07:00,
2013-08-30 05:12:00,68.5,50.8,30.06,NNE,15,10.1,10.1,53,0.00,,---,0.00,VWS V14.01,2013-08-30 11:12:00,
2013-08-30 05:18:00,68.7,51.4,30.06,North,11,13.2,13.2,54,0.00,,---,0.00,VWS V14.01,2013-08-30 11:18:00,
2013-08-30 05:24:00,68.7,51.4,30.06,North,0,11.0,11.0,54,0.00,,---,0.00,VWS V14.01,2013-08-30 11:24:00,
2013-08-30 05:29:00,68.9,52.1,30.06,NNE,18,8.1,8.7,55,0.00,,---,0.00,VWS V14.01,2013-08-30 11:29:00,
2013-08-30 05:35:00,68.9,52.6,30.06,NNE,16,10.5,10.5,56,0.00,,---,0.00,VWS V14.01,2013-08-30 11:35:00,
2013-08-30 05:41:00,68.9,52.6,30.03,NNE,12,10.1,10.1,56,0.00,,---,0.00,VWS V14.01,2013-08-30 11:41:00,
2013-08-30 05:46:00,68.9,53.1,30.03,North,5,13.2,15.0,57,0.00,,---,0.00,VWS V14.01,2013-08-30 11:46:00,
2013-08-30 05:52:00,68.7,52.9,30.03,North,8,10.5,13.2,57,0.00,,---,0.00,VWS V14.01,2013-08-30 11:52:00,
2013-08-30 05:57:00,68.5,52.7,30.03,North,0,10.5,10.5,57,0.00,,---,0.00,VWS V14.01,2013-08-30 11:57:00,
2013-08-30 06:03:00,68.4,53.0,30.06,NNE,18,10.5,11.0,58,0.00,,---,0.00,VWS V14.01,2013-08-30 12:03:00,
2013-08-30 06:08:00,68.4,53.0,30.06,North,357,11.9,11.9,58,0.00,,---,0.00,VWS V14.01,2013-08-30 12:08:00,
2013-08-30 06:14:00,68.4,53.5,30.06,NNE,13,10.5,10.5,59,0.00,,---,0.00,VWS V14.01,2013-08-30 12:14:00,
2013-08-30 06:20:00,68.4,54.0,30.06,NNE,24,11.4,11.4,60,0.00,,---,0.00,VWS V14.01,2013-08-30 12:20:00,
2013-08-30 06:25:00,68.4,54.0,30.06,North,6,8.7,12.8,60,0.00,,---,0.00,VWS V14.01,2013-08-30 12:25:00,
2013-08-30 06:31:00,68.5,54.6,30.06,NNE,13,10.1,10.5,61,0.00,,---,0.00,VWS V14.01,2013-08-30 12:31:00,
2013-08-30 06:37:00,68.9,55.4,30.06,North,6,10.1,10.5,62,0.00,,---,0.00,VWS V14.01,2013-08-30 12:37:00,
2013-08-30 06:42:00,69.3,55.7,30.06,North,357,13.2,13.2,62,0.00,,---,0.00,VWS V14.01,2013-08-30 12:42:00,
2013-08-30 06:48:00,69.4,56.3,30.06,NNE,13,11.9,11.9,63,0.00,,---,0.00,VWS V14.01,2013-08-30 12:48:00,
2013-08-30 06:53:00,70.3,57.2,30.09,NNE,12,11.0,13.2,63,0.00,,---,0.00,VWS V14.01,2013-08-30 12:53:00,
2013-08-30 06:59:00,70.7,57.5,30.09,North,9,11.0,11.0,63,0.00,,---,0.00,VWS V14.01,2013-08-30 12:59:00,
2013-08-30 07:05:00,71.1,57.8,30.09,North,8,13.2,13.2,63,0.00,,---,0.00,VWS V14.01,2013-08-30 13:05:00,
2013-08-30 07:10:00,71.4,58.2,30.09,North,9,12.3,12.8,63,0.00,,---,0.00,VWS V14.01,2013-08-30 13:10:00,
2013-08-30 07:16:00,71.8,58.1,30.09,North,5,11.0,11.0,62,0.00,,---,0.00,VWS V14.01,2013-08-30 13:16:00,
2013-08-30 07:22:00,72.1,58.4,30.09,NNE,13,11.0,13.2,62,0.00,,---,0.00,VWS V14.01,2013-08-30 13:22:00,
2013-08-30 07:27:00,72.5,58.8,30.09,North,4,14.5,14.5,62,0.00,,---,0.00,VWS V14.01,2013-08-30 13:27:00,
2013-08-30 07:33:00,72.9,59.1,30.09,NNE,17,12.3,12.8,62,0.00,,---,0.00,VWS V14.01,2013-08-30 13:33:00,
2013-08-30 07:38:00,73.2,59.0,30.09,North,1,15.0,15.0,61,0.00,,---,0.00,VWS V14.01,2013-08-30 13:38:00,
2013-08-30 07:43:00,73.8,59.0,30.09,North,2,12.3,13.2,60,0.00,,---,0.00,VWS V14.01,2013-08-30 13:43:00,
2013-08-30 07:48:00,74.3,59.1,30.09,NNE,22,10.1,13.2,59,0.00,,---,0.00,VWS V14.01,2013-08-30 13:48:00,
2013-08-30 07:54:00,74.8,59.1,30.09,North,3,15.4,15.4,58,0.00,,---,0.00,VWS V14.01,2013-08-30 13:54:00,
2013-08-30 07:59:00,75.2,57.9,30.09,NNE,12,15.4,15.4,55,0.00,,---,0.00,VWS V14.01,2013-08-30 13:59:00,
2013-08-30 08:04:00,75.6,57.8,30.09,North,1,15.4,16.3,54,0.00,,---,0.00,VWS V14.01,2013-08-30 14:04:00,
2013-08-30 08:09:00,76.1,56.7,30.09,NNE,21,15.0,15.4,51,0.00,,---,0.00,VWS V14.01,2013-08-30 14:09:00,
2013-08-30 08:14:00,76.6,56.1,30.09,NE,34,12.8,12.8,49,0.00,,---,0.00,VWS V14.01,2013-08-30 14:14:00,
2013-08-30 08:19:00,77.2,55.4,30.09,NNE,12,15.0,15.0,47,0.00,,---,0.00,VWS V14.01,2013-08-30 14:19:00,
2013-08-30 08:24:00,77.5,53.9,30.09,NNE,12,16.8,19.2,44,0.00,,---,0.00,VWS V14.01,2013-08-30 14:24:00,
2013-08-30 08:30:00,77.9,54.3,30.09,NE,36,11.0,15.4,44,0.00,,---,0.00,VWS V14.01,2013-08-30 14:30:00,
2013-08-30 08:36:00,78.6,54.3,30.09,North,7,15.4,15.4,43,0.00,,---,0.00,VWS V14.01,2013-08-30 14:36:00,
2013-08-30 08:41:00,78.6,53.6,30.09,NNE,27,15.9,15.9,42,0.00,,---,0.00,VWS V14.01,2013-08-30 14:41:00,
2013-08-30 08:46:00,79.0,53.3,30.09,NE,40,15.4,15.4,41,0.00,,---,0.00,VWS V14.01,2013-08-30 14:46:00,
2013-08-30 08:51:00,79.3,53.0,30.06,NNE,30,15.4,17.4,40,0.00,,---,0.00,VWS V14.01,2013-08-30 14:51:00,
2013-08-30 08:57:00,79.5,51.7,30.06,North,11,11.9,15.0,38,0.00,,---,0.00,VWS V14.01,2013-08-30 14:57:00,
2013-08-30 09:02:00,79.7,51.9,30.06,North,357,12.3,12.8,38,0.00,,---,0.00,VWS V14.01,2013-08-30 15:02:00,
2013-08-30 09:08:00,79.9,51.3,30.09,NNE,24,13.2,13.2,37,0.00,,---,0.00,VWS V14.01,2013-08-30 15:08:00,
2013-08-30 09:14:00,80.2,50.9,30.09,NNE,19,11.0,11.0,36,0.00,,---,0.00,VWS V14.01,2013-08-30 15:14:00,
2013-08-30 09:19:00,80.4,50.3,30.09,NNE,27,12.8,12.8,35,0.00,,---,0.00,VWS V14.01,2013-08-30 15:19:00,
2013-08-30 09:25:00,81.0,50.0,30.09,NE,39,11.4,11.4,34,0.00,,---,0.00,VWS V14.01,2013-08-30 15:25:00,
2013-08-30 09:30:00,81.9,50.8,30.09,NE,46,14.1,17.0,34,0.00,,---,0.00,VWS V14.01,2013-08-30 15:30:00,
2013-08-30 09:36:00,82.8,49.1,30.09,NNE,12,14.5,15.4,31,0.00,,---,0.00,VWS V14.01,2013-08-30 15:36:00,
2013-08-30 09:42:00,84.0,49.3,30.09,NE,39,14.1,15.4,30,0.00,,---,0.00,VWS V14.01,2013-08-30 15:42:00,
2013-08-30 09:47:00,84.7,49.0,30.09,NNE,21,15.4,15.4,29,0.00,,---,0.00,VWS V14.01,2013-08-30 15:47:00,
2013-08-30 09:53:00,85.1,49.3,30.09,NNE,31,15.4,15.4,29,0.00,,---,0.00,VWS V14.01,2013-08-30 15:53:00,
2013-08-30 09:58:00,85.3,48.5,30.09,NNE,33,19.7,19.7,28,0.00,,---,0.00,VWS V14.01,2013-08-30 15:58:00,
2013-08-30 10:03:00,85.1,47.4,30.09,NNE,32,13.2,15.9,27,0.00,,---,0.00,VWS V14.01,2013-08-30 16:03:00,
2013-08-30 10:08:00,84.9,47.2,30.09,NNE,32,19.7,19.7,27,0.00,,---,0.00,VWS V14.01,2013-08-30 16:08:00,
2013-08-30 10:14:00,85.1,47.4,30.09,NE,48,15.4,15.4,27,0.00,,---,0.00,VWS V14.01,2013-08-30 16:14:00,
2013-08-30 10:19:00,85.8,48.0,30.09,NNE,33,12.8,15.4,27,0.00,,---,0.00,VWS V14.01,2013-08-30 16:19:00,
2013-08-30 10:24:00,86.9,47.9,30.09,ENE,57,15.0,15.0,26,0.00,,---,0.00,VWS V14.01,2013-08-30 16:24:00,
2013-08-30 10:30:00,87.6,47.5,30.09,NE,41,16.3,16.3,25,0.00,,---,0.00,VWS V14.01,2013-08-30 16:30:00,
2013-08-30 10:36:00,88.2,46.9,30.09,NE,47,15.4,15.4,24,0.00,,---,0.00,VWS V14.01,2013-08-30 16:36:00,
2013-08-30 10:41:00,88.7,46.2,30.09,NE,47,15.0,16.3,23,0.00,,---,0.00,VWS V14.01,2013-08-30 16:41:00,
2013-08-30 10:46:00,88.7,46.2,30.09,ENE,58,11.0,15.0,23,0.00,,---,0.00,VWS V14.01,2013-08-30 16:46:00,
2013-08-30 10:52:00,89.2,45.5,30.09,NE,34,10.1,11.0,22,0.00,,---,0.00,VWS V14.01,2013-08-30 16:52:00,
2013-08-30 10:57:00,89.2,45.5,30.09,NNE,30,10.1,14.5,22,0.00,,---,0.00,VWS V14.01,2013-08-30 16:57:00,
2013-08-30 11:03:00,90.0,44.8,30.09,NE,53,11.4,11.4,21,0.00,,---,0.00,VWS V14.01,2013-08-30 17:03:00,
2013-08-30 11:08:00,90.7,44.1,30.09,NNE,28,11.9,13.6,20,0.00,,---,0.00,VWS V14.01,2013-08-30 17:08:00,
2013-08-30 11:14:00,90.7,44.1,30.09,NE,38,11.0,13.2,20,0.00,,---,0.00,VWS V14.01,2013-08-30 17:14:00,
2013-08-30 11:20:00,91.0,44.4,30.09,NE,49,8.1,11.4,20,0.00,,---,0.00,VWS V14.01,2013-08-30 17:20:00,
2013-08-30 11:25:00,91.6,43.5,30.09,ENE,65,13.6,13.6,19,0.00,,---,0.00,VWS V14.01,2013-08-30 17:25:00,
2013-08-30 11:30:00,91.9,43.8,30.09,NE,52,10.5,14.5,19,0.00,,---,0.00,VWS V14.01,2013-08-30 17:30:00,
2013-08-30 11:35:00,92.3,44.1,30.09,NE,42,14.5,14.5,19,0.00,,---,0.00,VWS V14.01,2013-08-30 17:35:00,
2013-08-30 11:41:00,92.5,44.3,30.09,NE,40,10.5,13.2,19,0.00,,---,0.00,VWS V14.01,2013-08-30 17:41:00,
2013-08-30 11:46:00,92.8,43.2,30.09,NE,50,8.1,11.0,18,0.00,,---,0.00,VWS V14.01,2013-08-30 17:46:00,
2013-08-30 11:52:00,93.4,43.6,30.09,NE,47,11.4,13.2,18,0.00,,---,0.00,VWS V14.01,2013-08-30 17:52:00,
2013-08-30 11:57:00,93.6,43.7,30.09,NE,55,10.5,12.3,18,0.00,,---,0.00,VWS V14.01,2013-08-30 17:57:00,
2013-08-30 12:03:00,93.6,43.7,30.09,NE,56,15.0,15.0,18,0.00,,---,0.00,VWS V14.01,2013-08-30 18:03:00,
2013-08-30 12:08:00,93.7,42.4,30.09,East,81,9.6,12.8,17,0.00,,---,0.00,VWS V14.01,2013-08-30 18:08:00,
2013-08-30 12:14:00,94.1,42.7,30.09,NNE,17,11.0,15.0,17,0.00,,---,0.00,VWS V14.01,2013-08-30 18:14:00,
2013-08-30 12:19:00,94.1,42.7,30.09,NE,39,12.8,12.8,17,0.00,,---,0.00,VWS V14.01,2013-08-30 18:19:00,
2013-08-30 12:24:00,94.1,42.7,30.06,NE,43,8.7,10.5,17,0.00,,---,0.00,VWS V14.01,2013-08-30 18:24:00,
2013-08-30 12:30:00,93.7,42.4,30.06,NE,56,14.5,14.5,17,0.00,,---,0.00,VWS V14.01,2013-08-30 18:30:00,
2013-08-30 12:35:00,93.7,42.4,30.06,NNE,33,11.0,13.2,17,0.00,,---,0.00,VWS V14.01,2013-08-30 18:35:00,
2013-08-30 12:40:00,94.1,42.7,30.09,NNE,27,15.9,15.9,17,0.00,,---,0.00,VWS V14.01,2013-08-30 18:40:00,
2013-08-30 12:45:00,94.1,42.7,30.09,NNE,31,8.3,10.5,17,0.00,,---,0.00,VWS V14.01,2013-08-30 18:45:00,
2013-08-30 12:51:00,94.5,43.0,30.09,NNE,30,10.5,10.5,17,0.00,,---,0.00,VWS V14.01,2013-08-30 18:51:00,
2013-08-30 12:56:00,94.5,43.0,30.09,NNE,26,8.7,8.7,17,0.00,,---,0.00,VWS V14.01,2013-08-30 18:56:00,
2013-08-30 13:02:00,94.3,42.8,30.09,ENE,61,8.1,12.3,17,0.00,,---,0.00,VWS V14.01,2013-08-30 19:02:00,
2013-08-30 13:07:00,94.5,43.0,30.09,East,87,10.1,12.3,17,0.00,,---,0.00,VWS V14.01,2013-08-30 19:07:00,
2013-08-30 13:13:00,95.5,42.2,30.06,East,99,11.9,11.9,16,0.00,,---,0.00,VWS V14.01,2013-08-30 19:13:00,
2013-08-30 13:18:00,96.3,42.8,30.06,ENE,57,11.0,11.0,16,0.00,,---,0.00,VWS V14.01,2013-08-30 19:18:00,
2013-08-30 13:24:00,95.9,42.5,30.06,East,99,11.0,11.0,16,0.00,,---,0.00,VWS V14.01,2013-08-30 19:24:00,
2013-08-30 13:29:00,96.1,42.7,30.06,East,95,8.3,8.3,16,0.00,,---,0.00,VWS V14.01,2013-08-30 19:29:00,
2013-08-30 13:34:00,96.4,39.5,30.06,NNE,21,6.3,7.6,14,0.00,,---,0.00,VWS V14.01,2013-08-30 19:34:00,
2013-08-30 13:40:00,96.3,39.4,30.06,North,2,5.4,5.4,14,0.00,,---,0.00,VWS V14.01,2013-08-30 19:40:00,
2013-08-30 13:45:00,96.3,39.4,30.06,ENE,69,6.3,7.6,14,0.00,,---,0.00,VWS V14.01,2013-08-30 19:45:00,
2013-08-30 13:51:00,96.6,39.7,30.06,NE,39,10.5,10.5,14,0.00,,---,0.00,VWS V14.01,2013-08-30 19:51:00,
2013-08-30 13:56:00,96.8,37.9,30.06,NE,47,10.5,13.2,13,0.00,,---,0.00,VWS V14.01,2013-08-30 19:56:00,
2013-08-30 14:02:00,96.4,33.4,30.06,ESE,107,4.9,6.3,11,0.00,,---,0.00,VWS V14.01,2013-08-30 20:02:00,
2013-08-30 14:08:00,96.4,33.4,30.06,ENE,65,8.7,8.7,11,0.00,,---,0.00,VWS V14.01,2013-08-30 20:08:00,
2013-08-30 14:13:00,96.8,33.7,30.06,SE,136,8.1,8.1,11,0.00,,---,0.00,VWS V14.01,2013-08-30 20:13:00,
2013-08-30 14:19:00,97.3,34.1,30.06,East,92,13.2,13.2,11,0.00,,---,0.00,VWS V14.01,2013-08-30 20:19:00,
2013-08-30 14:24:00,97.7,34.4,30.06,ESE,107,8.7,8.7,11,0.00,,---,0.00,VWS V14.01,2013-08-30 20:24:00,
2013-08-30 14:30:00,97.9,34.5,30.06,ENE,73,3.6,3.6,11,0.00,,---,0.00,VWS V14.01,2013-08-30 20:30:00,
2013-08-30 14:36:00,97.5,34.2,30.03,ESE,118,8.3,8.3,11,0.00,,---,0.00,VWS V14.01,2013-08-30 20:36:00,
2013-08-30 14:41:00,97.5,34.2,30.03,ESE,112,15.4,15.9,11,0.00,,---,0.00,VWS V14.01,2013-08-30 20:41:00,
2013-08-30 14:47:00,97.7,34.4,30.03,South,169,3.6,10.1,11,0.00,,---,0.00,VWS V14.01,2013-08-30 20:47:00,
2013-08-30 14:52:00,97.5,34.2,30.03,ESE,122,8.3,8.3,11,0.00,,---,0.00,VWS V14.01,2013-08-30 20:52:00,
2013-08-30 14:58:00,97.5,34.2,30.03,NE,42,5.8,7.6,11,0.00,,---,0.00,VWS V14.01,2013-08-30 20:58:00,
2013-08-30 15:04:00,97.2,34.0,30.03,East,83,5.8,10.1,11,0.00,,---,0.00,VWS V14.01,2013-08-30 21:04:00,
2013-08-30 15:09:00,97.5,34.2,30.03,ENE,77,5.8,7.6,11,0.00,,---,0.00,VWS V14.01,2013-08-30 21:09:00,
2013-08-30 15:15:00,97.9,34.5,30.03,ENE,59,8.7,8.7,11,0.00,,---,0.00,VWS V14.01,2013-08-30 21:15:00,
2013-08-30 15:20:00,98.1,34.7,30.03,North,357,6.3,9.2,11,0.00,,---,0.00,VWS V14.01,2013-08-30 21:20:00,
2013-08-30 15:26:00,98.1,34.7,30.03,SW,222,3.6,7.6,11,0.00,,---,0.00,VWS V14.01,2013-08-30 21:26:00,
2013-08-30 15:32:00,97.9,26.7,30.03,SSE,157,9.2,9.2,8,0.00,,---,0.00,VWS V14.01,2013-08-30 21:32:00,
2013-08-30 15:37:00,98.2,34.8,30.03,South,171,8.3,8.7,11,0.00,,---,0.00,VWS V14.01,2013-08-30 21:37:00,
2013-08-30 15:43:00,98.4,27.1,30.03,East,88,8.3,13.2,8,0.00,,---,0.00,VWS V14.01,2013-08-30 21:43:00,
2013-08-30 15:48:00,98.8,27.3,30.03,ESE,104,8.1,10.1,8,0.00,,---,0.00,VWS V14.01,2013-08-30 21:48:00,
2013-08-30 15:54:00,98.8,27.3,30.03,East,99,10.5,10.5,8,0.00,,---,0.00,VWS V14.01,2013-08-30 21:54:00,
2013-08-30 16:00:00,99.1,27.6,30.03,ENE,65,8.3,8.3,8,0.00,,---,0.00,VWS V14.01,2013-08-30 22:00:00,
2013-08-30 16:05:00,99.3,27.7,30.00,SE,125,16.8,16.8,8,0.00,,---,0.00,VWS V14.01,2013-08-30 22:05:00,
2013-08-30 16:11:00,99.5,27.9,30.00,SE,138,14.1,14.1,8,0.00,,---,0.00,VWS V14.01,2013-08-30 22:11:00,
2013-08-30 16:16:00,99.1,27.6,30.00,East,101,5.8,5.8,8,0.00,,---,0.00,VWS V14.01,2013-08-30 22:16:00,
2013-08-30 16:22:00,99.0,27.5,30.00,East,101,10.1,11.0,8,0.00,,---,0.00,VWS V14.01,2013-08-30 22:22:00,
2013-08-30 16:28:00,98.6,27.2,30.00,East,95,6.3,6.3,8,0.00,,---,0.00,VWS V14.01,2013-08-30 22:28:00,
2013-08-30 16:33:00,98.4,27.1,30.00,ESE,104,8.3,12.8,8,0.00,,---,0.00,VWS V14.01,2013-08-30 22:33:00,
2013-08-30 16:39:00,97.9,26.7,30.00,East,80,10.1,10.5,8,0.00,,---,0.00,VWS V14.01,2013-08-30 22:39:00,
2013-08-30 16:44:00,97.3,26.3,30.00,ENE,62,8.1,8.3,8,0.00,,---,0.00,VWS V14.01,2013-08-30 22:44:00,
2013-08-30 16:50:00,95.9,28.1,30.00,ENE,75,8.1,8.1,9,0.00,,---,0.00,VWS V14.01,2013-08-30 22:50:00,
2013-08-30 16:56:00,95.2,27.5,30.00,ESE,108,8.3,8.3,9,0.00,,---,0.00,VWS V14.01,2013-08-30 22:56:00,
2013-08-30 17:01:00,95.2,27.5,30.00,East,87,9.6,9.6,9,0.00,,---,0.00,VWS V14.01,2013-08-30 23:01:00,
2013-08-30 17:06:00,95.0,27.4,30.00,East,94,7.6,8.7,9,0.00,,---,0.00,VWS V14.01,2013-08-30 23:06:00,
2013-08-30 17:11:00,95.0,27.4,30.00,East,100,10.1,10.1,9,0.00,,---,0.00,VWS V14.01,2013-08-30 23:11:00,
2013-08-30 17:17:00,94.8,27.3,30.00,ESE,122,10.1,10.1,9,0.00,,---,0.00,VWS V14.01,2013-08-30 23:17:00,
2013-08-30 17:22:00,94.6,27.1,30.00,SE,127,6.7,8.7,9,0.00,,---,0.00,VWS V14.01,2013-08-30 23:22:00,
2013-08-30 17:27:00,93.6,26.3,30.00,SSE,163,8.7,8.7,9,0.00,,---,0.00,VWS V14.01,2013-08-30 23:27:00,
2013-08-30 17:32:00,92.8,32.8,30.00,SSE,163,8.7,8.7,12,0.00,,---,0.00,VWS V14.01,2013-08-30 23:32:00,